Wind_Speed
24 23 22 22 20 20 20 18 18 18 17 16 14 13 12 11 11 12 12 12 12 11 11 10 10 10 9 9 9 8 8 7 7 7 6 6 5 5 5 4 4 3 3 2 2 2 2 0 2 3 1 1 2 1 2 2 2 2 3 4 4 4 5 5 6 6 6 6 6 6 6 7 8 7 6 5 4 5 5 6 5 5 4 4 3
18 22 23 22 21 20 19 18 18 18 17 16 14 13 13 12 12 12 12 11 11 11 10 10 10 9 9 8 8 8 8 7 7 7 7 6 6 6 5 5 4 4 3 3 3 3 2 2 3 3 3 3 2 2 1 1 1 3 4 3 3 3 4 4 5 5 5 5 5 6 6 6 8 8 7 4 3 3 3 4 4 4 4 4 4
15 20 21 22 21 20 19 18 18 18 17 16 15 14 14 14 13 13 12 11 11 10 10 10 9 9 9 8 8 8 8 8 8 8 7 7 7 6 5 5 4 3 2 2 2 2 2 3 4 4 4 4 3 2 2 2 2 3 4 3 2 2 2 3 3 3 4 4 4 4 4 5 7 8 6 4 2 2 2 2 3 2 2 2 3
14 18 19 20 20 21 19 18 18 18 18 17 16 15 15 15 15 14 13 12 12 11 11 10 10 10 9 9 9 9 8 9 9 9 9 8 8 7 5 5 4 3 2 2 2 3 4 4 5 5 5 4 4 3 3 3 4 4 4 3 3 2 2 2 2 2 2 2 2 2 2 3 4 5 5 3 1 1 1 2 3 2 1 1 2
13 17 18 18 19 20 19 18 18 18 18 18 17 16 16 16 16 15 15 14 13 13 12 11 11 11 10 9 9 9 9 9 9 9 9 9 9 8 6 5 4 4 3 3 4 5 5 5 5 6 5 5 4 4 3 4 6 7 6 5 4 4 3 3 3 3 3 3 2 1 1 1 2 3 4 2 1 1 1 1 1 2 2 2 3
12 16 18 18 18 19 19 19 18 18 18 19 19 18 18 17 17 16 16 15 15 14 13 12 12 11 10 10 9 9 10 10 10 9 9 8 9 8 7 6 5 5 5 5 5 5 5 5 6 6 5 5 5 4 5 8 9 9 8 7 6 6 5 5 5 5 5 4 3 2 1 1 3 3 3 2 2 3 2 1 1 1 0 1 2
12 15 18 17 17 18 19 19 18 18 18 19 19 19 19 18 17 17 17 16 16 15 14 13 12 12 11 10 10 10 11 12 12 10 9 8 9 9 7 6 6 6 7 7 7 5 5 6 6 6 6 6 6 7 9 11 11 10 10 9 9 8 7 7 6 6 6 6 5 4 3 3 3 5 4 3 3 5 5 4 3 2 2 2 2
12 15 17 17 17 18 18 18 19 18 18 18 18 18 18 18 18 17 17 17 16 15 14 13 12 13 12 12 12 13 14 14 13 11 10 9 9 10 9 8 8 8 9 9 9 8 8 8 8 7 7 7 9 11 12 12 11 11 10 10 9 9 9 8 8 8 8 7 7 6 5 5 5 6 7 6 6 6 7 6 4 3 4 5 4
12 14 17 18 18 18 19 19 19 19 19 18 18 18 18 18 17 16 16 17 16 15 14 12 13 14 14 14 14 15 15 15 14 13 12 11 11 11 11 10 10 11 11 11 11 10 10 11 10 10 10 11 13 13 13 12 11 10 10 9 9 9 9 9 9 9 9 9 9 8 8 7 6 7 8 9 9 9 9 8 6 5 5 6 5
11 13 16 18 19 20 20 20 20 19 19 19 19 18 18 17 17 16 16 15 14 14 14 14 14 15 15 15 16 15 15 15 15 15 14 13 13 13 13 12 12 12 12 12 11 11 11 11 11 11 12 12 12 12 11 10 10 9 8 8 7 7 7 7 8 9 9 10 11 11 10 10 9 9 9 10 11 11 11 10 9 8 7 7 6
12 13 15 18 20 21 21 21 20 20 20 19 19 19 18 17 16 16 15 14 14 15 16 17 17 16 16 16 16 16 16 15 16 16 15 15 14 13 13 13 12 12 12 11 10 10 10 10 10 10 10 10 10 9 9 8 7 6 6 5 4 4 4 5 5 6 7 9 11 12 12 12 12 11 11 11 13 13 12 11 11 10 9 8 7
13 14 15 17 20 21 21 22 21 21 20 20 19 19 18 17 17 17 17 16 17 18 18 18 18 17 17 17 17 17 16 17 17 16 15 14 13 12 12 12 12 11 11 11 10 10 10 10 10 9 8 7 7 6 5 4 3 3 3 4 4 4 4 4 4 4 4 6 8 10 12 13 13 14 14 14 15 15 13 12 11 11 11 9 8
13 14 16 17 19 21 22 22 22 21 21 20 20 19 18 18 18 18 18 19 19 18 18 18 18 18 18 17 16 15 15 16 15 13 13 12 11 12 12 12 11 10 10 10 10 9 9 9 8 7 6 5 3 2 2 1 2 2 3 4 4 4 4 4 4 4 4 4 5 7 9 12 14 15 16 17 17 16 15 14 13 13 13 12 11
13 14 16 17 19 20 22 22 22 21 21 21 20 19 19 19 18 18 19 19 19 18 18 19 19 19 18 17 15 14 15 15 13 11 11 10 10 11 11 10 10 9 9 9 9 8 7 6 6 5 3 2 1 1 2 2 3 3 4 4 4 4 5 5 5 5 5 5 5 5 6 9 12 15 17 18 19 18 17 16 16 15 15 14 14
13 14 16 17 18 20 21 22 22 22 21 21 20 20 20 20 20 20 20 20 20 20 19 19 19 18 17 16 15 14 14 13 11 10 10 10 10 10 9 9 8 8 8 8 7 6 5 4 4 3 2 1 1 2 2 3 4 4 4 5 5 5 5 5 5 5 6 6 6 6 6 7 9 13 16 18 19 19 19 19 18 18 17 16 16
13 15 16 17 18 20 21 22 22 22 22 21 21 20 20 21 21 20 20 20 21 21 20 19 19 17 16 15 15 15 14 12 11 10 9 9 9 9 8 7 7 7 6 6 5 4 4 3 3 2 1 1 1 2 2 3 3 4 4 4 5 5 5 5 5 5 6 6 7 7 7 7 8 11 14 16 18 19 19 20 20 20 20 19 18
14 16 17 18 19 20 21 22 22 23 23 22 22 21 21 21 21 21 20 20 20 20 20 19 18 17 16 16 16 15 14 12 12 10 10 9 9 8 7 7 6 6 5 5 5 4 4 3 2 1 1 0 0 1 2 2 3 3 4 4 4 4 4 5 5 5 6 6 7 8 8 8 9 10 12 14 16 18 18 19 20 20 20 20 20
16 17 18 19 20 21 21 22 23 23 24 24 23 23 23 22 22 22 21 21 20 19 19 18 17 16 16 16 16 15 14 13 12 11 10 9 8 8 7 7 6 6 6 5 5 5 4 3 3 2 2 1 0 1 1 2 2 2 3 3 3 3 3 4 4 5 5 6 7 9 10 10 10 10 11 13 14 15 16 18 19 20 20 21 21
18 19 20 20 21 22 22 23 24 24 24 25 24 24 24 24 23 23 22 22 21 20 20 19 17 16 16 17 16 15 15 14 13 12 11 10 9 8 8 7 7 7 6 6 5 5 4 4 3 3 2 2 1 1 2 2 2 2 2 2 3 3 3 3 3 3 4 5 7 8 10 11 11 11 12 12 13 13 14 16 17 19 20 20 21
21 21 21 22 22 23 24 24 25 25 25 25 25 25 25 24 24 23 23 22 22 21 22 20 17 17 17 17 17 17 16 15 14 13 11 11 10 10 9 9 8 7 7 6 6 5 5 4 4 3 3 2 3 3 3 3 3 2 2 3 3 3 3 3 2 2 3 4 6 7 9 11 12 13 13 13 13 13 13 13 14 16 18 19 20
23 23 23 23 24 24 25 25 26 26 26 26 26 26 26 25 25 25 24 23 23 23 23 21 18 18 18 18 18 18 18 16 15 13 12 12 11 11 10 10 9 9 8 7 7 6 6 5 4 4 3 3 4 4 5 5 4 4 4 4 4 4 4 3 3 2 3 4 5 7 9 10 12 13 14 14 14 14 13 13 13 13 15 16 17
24 25 25 25 25 26 25 26 26 26 27 27 27 27 27 27 26 26 25 25 25 24 24 21 19 18 18 19 19 19 18 17 15 14 13 13 12 12 11 11 10 10 9 8 8 7 7 6 5 4 4 5 5 6 6 6 6 6 6 6 6 5 5 4 4 3 3 4 5 7 8 10 11 13 14 15 15 14 14 14 13 13 13 14 14
25 25 25 26 27 27 26 26 27 27 28 28 28 28 28 28 28 28 27 27 27 26 25 22 20 20 19 19 20 20 19 17 16 15 15 14 14 13 13 12 12 11 11 10 9 9 8 7 6 5 5 5 6 6 7 7 7 7 8 8 8 7 7 6 5 5 4 4 5 6 8 9 11 12 13 14 15 15 14 14 14 14 14 14 14
25 25 26 27 28 28 27 27 28 28 29 29 30 30 30 30 30 30 29 28 29 28 26 24 22 21 21 21 21 21 20 19 18 17 16 15 15 15 14 14 13 12 11 11 10 10 9 7 6 5 5 5 5 6 6 6 7 7 8 8 8 8 8 8 7 7 6 5 5 6 7 8 10 11 13 13 14 14 14 15 14 14 15 14 14
25 27 28 28 28 28 29 29 29 30 30 30 31 31 31 32 32 32 31 31 30 30 28 26 24 23 23 22 23 23 22 21 19 18 17 16 16 16 15 14 14 13 12 12 11 10 9 7 6 6 5 5 5 5 6 6 7 7 8 8 8 9 9 8 8 8 8 7 6 6 6 7 8 10 12 13 14 14 14 14 14 14 14 15 14
27 28 27 27 28 29 30 30 30 31 31 31 31 32 33 33 34 34 33 33 33 32 30 29 27 25 24 24 25 25 24 23 21 20 18 17 17 16 15 15 15 14 13 13 12 10 9 8 7 6 6 5 5 6 6 7 8 8 9 9 9 9 9 9 9 9 8 8 8 7 7 7 8 9 11 12 13 14 14 14 14 14 14 14 14
26 27 26 27 28 29 30 31 31 32 32 33 33 33 34 34 35 35 36 35 35 34 33 31 29 27 27 26 27 27 27 25 23 22 20 19 18 17 17 17 16 15 14 13 13 12 10 9 8 7 6 6 6 7 7 8 9 9 10 10 10 9 9 9 9 9 9 9 9 8 8 8 8 9 10 12 13 14 14 14 13 13 14 14 14
27 27 27 28 28 29 31 31 31 32 33 34 34 34 34 35 36 37 37 37 37 36 35 33 31 30 29 28 28 29 29 27 26 24 22 20 19 19 19 19 18 17 16 15 14 13 11 10 8 8 7 7 7 7 8 9 10 10 10 10 10 10 10 10 9 9 9 9 9 9 9 9 9 9 10 11 12 13 14 13 12 12 12 12 13
26 26 27 28 28 29 30 31 32 33 34 34 35 35 35 36 37 38 38 38 38 38 37 35 34 32 31 30 30 31 31 30 28 26 24 22 22 22 21 21 20 19 18 17 16 14 12 11 10 9 8 8 7 8 8 9 10 10 11 11 11 10 10 10 10 10 10 10 10 10 10 10 10 10 11 11 12 13 13 13 13 11 10 11 12
24 25 27 27 28 30 31 31 32 33 34 35 35 36 37 37 38 38 38 38 39 39 38 37 36 35 34 32 32 32 32 31 30 28 26 25 24 24 23 23 22 21 19 18 17 15 14 12 11 10 9 8 8 8 9 9 10 11 11 11 11 11 10 10 10 10 10 10 10 10 10 10 10 11 11 12 12 12 13 14 13 11 10 8 9
25 26 26 26 29 30 30 31 32 33 35 35 35 36 38 39 38 38 38 39 39 39 39 39 39 37 36 34 33 34 34 33 32 31 29 27 26 26 25 24 24 22 21 20 18 17 16 15 14 12 10 9 9 9 9 10 10 11 11 11 11 11 11 11 10 10 10 10 10 10 10 10 10 10 11 11 12 12 13 13 13 12 10 8 6
28 27 25 26 29 29 30 32 33 34 35 36 35 37 39 39 39 39 39 39 39 40 41 41 41 39 38 36 36 35 35 35 35 33 31 30 29 28 27 26 25 23 22 21 19 18 18 17 15 13 11 10 10 10 10 10 10 10 11 11 11 11 11 11 11 11 11 11 11 11 11 11 11 10 10 11 11 12 12 12 13 12 12 10 7
32 28 27 28 28 28 31 33 34 35 36 36 36 37 38 39 40 40 40 40 40 41 42 42 42 41 40 39 38 37 36 36 36 35 34 32 31 30 29 27 26 25 23 22 21 20 20 19 17 14 13 11 11 10 10 9 9 10 10 11 11 11 11 11 11 11 11 11 11 11 11 11 11 10 10 11 11 11 11 11 11 12 11 11 9
35 32 31 30 29 29 30 31 34 36 36 37 37 38 39 39 40 40 41 41 42 42 42 42 42 42 42 41 40 39 38 37 37 37 36 35 33 32 30 29 27 26 25 24 23 22 21 20 18 16 14 12 11 11 10 9 9 9 10 10 11 11 11 11 11 11 11 11 10 11 11 11 11 10 10 10 10 10 10 10 10 11 11 12 10
38 36 34 32 31 31 31 31 32 35 37 38 38 38 39 40 40 41 42 42 42 42 42 43 43 43 43 43 43 41 40 39 38 38 38 37 35 34 33 31 29 28 27 26 24 24 23 21 19 17 15 13 12 11 10 9 9 9 9 10 10 10 11 11 11 11 10 10 10 10 10 10 10 10 10 10 10 9 9 9 9 10 10 11 11
40 38 36 34 33 33 33 33 34 35 36 38 39 39 40 41 41 42 43 43 43 43 43 43 44 45 45 45 45 44 42 41 40 39 39 39 38 36 34 33 31 30 28 27 26 26 25 23 20 18 16 14 12 11 11 10 9 9 9 9 10 10 10 11 10 10 10 9 9 9 9 9 10 10 10 10 10 9 9 9 9 9 9 10 10
37 36 35 34 34 34 34 35 35 35 36 37 39 40 40 41 42 43 44 45 44 44 44 44 45 46 46 47 47 46 44 42 41 40 40 40 39 38 36 34 33 31 30 29 28 27 26 24 22 20 18 15 13 13 12 11 10 10 9 9 10 10 11 11 10 9 9 9 8 8 8 9 10 10 10 10 10 10 9 9 9 9 9 10 10
32 31 31 31 32 33 34 34 34 35 35 37 38 40 41 42 43 45 45 46 45 45 45 45 46 46 47 48 48 47 46 44 43 42 41 41 40 39 38 36 35 34 32 31 30 29 28 26 24 21 19 17 15 14 13 12 11 10 9 9 10 10 10 10 10 9 8 8 8 8 8 8 9 9 10 10 10 10 10 10 10 9 9 10 9
29 28 28 28 29 30 31 32 33 34 34 35 38 41 42 43 44 45 46 47 47 48 48 47 47 47 48 48 49 48 48 46 45 43 42 42 41 41 40 39 38 36 34 33 32 31 30 28 26 23 20 18 17 16 15 14 12 10 9 9 9 9 10 10 9 9 9 9 9 9 8 8 8 8 9 9 9 9 9 9 9 9 9 9 9
26 25 25 25 26 27 28 30 31 32 33 35 38 40 43 44 45 46 47 48 49 50 49 49 48 48 48 48 50 50 49 48 46 45 44 43 42 42 42 42 40 38 36 35 34 33 31 29 27 24 22 21 20 19 17 16 13 11 9 8 8 8 8 9 9 9 9 9 10 10 9 9 8 8 9 9 9 9 9 9 9 9 9 9 9
24 22 22 22 22 23 24 26 28 30 32 34 36 39 41 43 45 45 46 47 49 50 50 50 50 49 49 49 50 50 50 50 48 47 45 44 44 44 44 44 42 40 38 36 34 33 32 30 28 26 25 23 22 21 19 17 14 12 10 8 8 8 8 8 8 9 9 10 11 11 10 9 9 9 9 9 9 9 9 9 9 9 9 9 8
19 19 19 18 18 19 20 22 25 27 29 32 34 37 38 40 42 42 43 45 48 50 50 50 50 50 51 51 51 52 52 51 50 49 47 46 46 45 45 44 43 41 39 38 36 35 34 32 30 29 27 25 24 22 21 19 16 13 11 8 7 7 7 8 9 9 10 11 11 10 10 9 9 9 9 9 9 9 9 9 8 8 8 8 8
17 16 16 16 17 18 19 21 23 25 27 30 32 34 36 39 41 42 42 44 46 48 49 50 50 51 52 52 52 52 52 52 51 50 49 48 47 46 45 44 43 42 41 40 39 38 36 34 33 31 30 28 26 24 23 21 17 14 11 9 9 7 8 10 11 12 13 13 12 11 11 9 9 9 9 8 8 9 9 9 9 9 9 8 9
20 18 16 16 17 17 18 20 21 23 25 28 30 32 35 38 41 42 42 43 44 46 48 50 51 53 53 53 53 53 53 52 52 52 51 49 47 46 45 44 44 43 43 41 41 40 38 37 35 34 32 30 29 27 25 23 20 17 13 10 9 8 9 11 12 13 15 15 15 15 14 12 11 10 10 9 9 10 11 10 10 10 10 9 9
20 18 17 16 16 16 18 20 21 23 24 26 29 32 35 38 41 42 43 45 46 47 48 50 53 54 54 54 53 53 52 52 52 52 52 50 48 47 46 45 45 45 44 43 43 41 40 38 37 36 35 33 31 29 27 25 23 20 17 13 10 10 10 10 10 13 15 16 17 17 18 17 16 14 12 12 11 11 12 12 11 11 10 9 9
17 14 14 15 16 16 17 20 22 23 24 26 28 31 34 37 40 42 44 46 47 48 49 50 51 51 51 51 51 51 51 52 52 52 52 51 49 48 47 46 46 46 46 45 44 43 41 39 38 37 36 34 32 31 29 26 24 23 21 19 15 13 12 10 11 13 14 16 17 17 17 18 19 18 15 13 13 12 13 12 11 11 10 10 10
19 14 12 13 14 16 17 19 21 23 24 25 28 31 34 36 39 40 41 43 44 44 44 45 46 45 46 47 49 50 51 52 52 53 52 52 50 49 48 47 46 47 47 46 46 44 41 40 39 38 36 35 34 33 30 28 26 25 23 21 19 16 14 14 14 13 12 14 16 16 16 15 17 19 16 15 14 13 13 12 11 11 11 10 11
22 17 15 15 15 15 16 17 18 21 23 25 27 30 33 35 36 37 38 39 40 40 41 42 43 43 45 46 47 48 50 51 52 52 52 52 52 50 49 48 47 47 47 47 46 44 42 41 40 39 38 37 36 34 32 30 29 27 25 22 20 18 17 16 15 14 13 13 14 15 15 14 16 18 17 15 14 14 13 12 11 11 11 11 12
21 19 19 21 20 17 15 15 16 18 21 23 26 28 30 32 34 35 37 37 38 39 39 40 41 42 44 45 46 46 48 50 51 52 52 53 52 52 51 49 48 48 48 47 45 44 43 42 42 41 40 38 37 35 33 31 30 28 26 24 22 19 18 16 16 16 16 15 15 15 15 14 16 17 17 15 14 13 12 12 11 10 10 11 12
21 21 23 26 26 22 17 14 14 16 18 20 23 25 27 29 31 33 35 35 36 37 38 39 39 40 42 44 45 45 46 48 50 51 52 53 53 52 52 51 49 48 47 47 46 45 44 43 42 41 40 39 38 36 34 32 31 29 28 26 24 22 19 18 17 16 16 16 16 16 15 14 15 15 15 15 14 12 11 11 10 9 8 10 10
24 24 26 28 30 29 24 18 14 14 16 17 20 23 25 28 29 31 32 33 35 36 37 37 38 38 40 41 43 43 44 45 48 50 51 52 52 52 52 51 49 48 48 47 47 45 44 43 42 42 41 40 38 37 35 34 32 30 29 28 26 24 21 19 17 16 15 15 16 16 15 14 14 14 14 14 14 13 12 11 10 8 8 9 7
Wind_Direction
193 193 193 198 202 198 196 192 192 194 193 192 191 194 193 193 191 187 183 183 184 185 187 185 188 190 194 193 192 190 189 191 192 195 194 196 197 198 196 198 200 203 199 198 204 210 216 151 78 92 131 142 111 169 178 166 136 84 70 66 55 48 43 38 36 37 44 53 64 73 85 95 85 90 97 83 77 73 67 65 66 71 79 89 97
196 195 195 197 203 202 199 197 196 197 197 196 197 199 199 199 198 198 195 193 192 193 196 197 199 201 205 207 209 206 206 207 208 210 209 213 216 218 217 219 220 220 215 213 212 211 210 167 134 157 201 209 222 264 271 227 60 55 65 68 55 46 37 32 29 28 30 41 56 71 80 92 90 96 100 89 87 86 75 59 55 67 79 83 90
193 197 199 199 204 204 204 201 199 199 199 200 201 202 202 201 198 201 204 205 202 201 205 209 213 214 217 220 225 225 227 228 226 225 223 227 228 230 228 224 221 213 207 215 208 195 201 194 192 202 213 222 238 268 304 308 351 26 50 50 39 37 29 24 21 21 16 26 41 64 76 91 97 100 108 112 98 80 75 44 22 37 75 73 65
187 196 199 201 205 206 207 204 201 199 200 203 203 204 204 203 202 203 208 213 215 214 214 216 220 222 225 228 231 233 237 239 236 233 232 233 229 226 220 215 210 199 186 177 178 187 206 214 226 230 225 229 242 264 296 317 335 344 358 360 354 354 350 349 346 351 351 1 19 47 74 97 111 106 111 128 104 41 47 42 14 6 352 320 340
180 191 197 200 203 206 207 204 203 202 203 204 204 208 209 209 210 209 211 215 220 224 222 220 221 224 228 232 235 235 238 242 240 236 235 232 228 223 215 215 211 202 180 165 185 204 220 227 233 234 233 240 251 262 286 311 321 325 329 335 332 327 323 321 318 315 316 319 334 2 75 133 160 141 118 129 173 346 10 49 43 23 7 340 330
179 186 194 197 200 204 207 206 205 206 207 207 209 211 213 215 216 217 216 215 219 225 225 222 222 223 226 228 232 234 234 237 238 237 239 236 233 230 223 224 224 211 195 196 216 227 231 237 242 243 245 247 245 250 276 296 305 311 313 315 313 309 306 302 302 300 299 298 298 298 274 222 210 202 168 142 209 261 281 267 206 181 329 339 339
183 186 192 196 199 203 206 207 206 207 208 210 213 216 218 220 220 222 222 218 219 222 222 222 223 223 223 222 224 227 227 229 235 238 241 241 238 239 236 237 238 231 227 235 248 252 250 252 255 258 255 238 233 253 275 288 295 299 299 299 298 295 291 285 282 283 283 284 282 277 267 250 237 231 221 189 210 244 252 257 248 232 262 285 295
184 185 191 195 198 202 205 207 209 209 210 211 214 216 219 221 221 221 223 222 221 220 218 218 220 221 219 217 217 219 223 227 234 239 240 242 239 240 245 249 251 248 248 256 263 261 259 260 261 263 255 244 254 271 282 287 290 292 293 294 293 290 286 279 270 266 265 267 269 268 262 252 243 239 237 228 229 241 249 255 255 257 275 283 286
190 186 190 196 199 203 205 208 210 211 213 214 215 215 216 218 219 217 220 221 219 216 211 212 214 217 214 212 213 217 225 229 233 239 240 242 243 243 249 252 254 257 259 263 266 264 261 261 261 261 259 261 270 279 285 288 290 291 291 291 290 289 285 278 269 260 256 255 257 259 259 254 247 242 242 243 244 247 252 253 252 258 268 271 268
202 194 193 197 201 204 206 208 210 211 213 216 217 218 217 215 214 213 215 214 213 212 206 208 213 214 212 211 215 221 228 232 236 242 245 247 248 248 251 251 251 258 263 264 264 263 262 261 260 261 264 269 275 280 286 288 290 289 288 287 285 285 281 276 269 260 252 248 248 250 253 253 251 247 245 249 251 251 252 256 257 258 261 264 258
216 207 201 200 203 207 208 210 210 210 212 214 216 217 217 213 208 208 209 206 207 210 206 208 214 216 214 217 222 227 232 237 242 247 251 253 252 249 249 250 249 253 258 262 261 260 261 261 261 262 265 269 276 281 285 287 289 292 295 299 300 299 296 289 278 266 254 246 243 241 243 246 248 249 248 249 251 253 254 256 260 260 259 260 258
228 219 212 206 206 209 210 211 210 210 211 212 214 214 215 212 207 206 206 207 209 212 211 211 216 218 220 226 229 232 236 242 247 249 251 252 251 247 246 247 247 249 253 258 258 258 257 259 262 265 267 268 272 274 278 283 293 310 322 329 332 333 331 327 318 304 281 259 247 241 238 239 241 245 247 248 251 255 256 256 259 259 256 254 252
235 229 221 215 211 211 212 213 212 211 212 212 212 211 213 213 210 210 211 214 218 218 218 221 223 223 227 232 232 235 238 245 250 248 244 242 240 239 239 240 241 244 247 251 252 251 252 256 260 264 265 262 260 262 279 307 327 333 334 333 333 333 330 330 326 321 314 296 273 254 242 238 238 240 244 248 251 254 255 255 256 256 254 253 252
237 235 228 223 218 216 215 215 215 214 214 213 212 211 212 214 213 215 218 222 227 230 230 231 233 234 235 237 235 236 241 247 250 242 234 232 229 230 232 234 236 240 243 244 245 245 244 244 243 243 245 246 261 308 334 335 334 333 331 329 326 325 323 321 321 318 315 309 300 285 262 246 241 241 243 247 251 252 254 254 254 255 256 256 258
236 236 234 231 225 222 220 219 218 217 217 216 215 213 214 217 217 216 219 224 230 236 239 237 239 241 238 236 233 234 241 245 244 235 228 227 224 227 230 233 237 239 240 238 237 232 223 214 211 206 211 246 307 326 333 332 333 332 329 328 325 323 320 318 316 313 310 307 303 297 287 267 250 245 244 246 250 251 251 252 252 253 255 257 260
233 233 233 234 232 229 226 224 222 221 220 219 219 217 217 219 221 221 220 225 230 236 240 238 238 239 234 232 230 232 239 239 237 232 227 224 223 225 227 232 235 234 231 225 216 203 192 189 187 187 203 266 319 330 336 336 334 333 329 327 324 321 319 316 312 308 303 300 296 293 289 281 267 254 249 248 250 251 249 250 252 252 254 255 258
230 231 231 232 234 234 232 230 227 225 224 223 222 221 222 222 224 226 225 228 232 236 239 238 237 238 236 233 232 234 236 233 230 228 225 223 222 223 224 226 224 218 212 200 191 184 184 187 189 202 212 253 325 351 344 342 335 329 327 323 322 320 319 317 313 309 303 297 294 293 291 285 276 265 257 253 252 253 251 251 253 254 255 256 256
231 231 231 232 233 235 236 235 232 230 228 226 225 224 225 226 226 227 227 229 233 236 239 239 238 238 235 232 232 232 231 228 225 223 223 224 223 224 223 219 213 205 197 190 189 189 191 198 200 208 199 199 228 320 325 327 327 326 329 330 333 333 332 328 321 314 305 297 292 291 291 288 282 274 267 263 260 258 256 254 254 256 257 259 259
233 232 230 231 232 234 236 237 237 235 233 230 229 227 227 228 228 228 228 229 232 235 236 237 236 233 229 228 229 227 224 222 220 221 222 224 225 225 222 216 212 206 201 199 200 203 206 209 208 208 209 220 254 281 294 304 314 329 343 353 2 3 0 350 336 318 302 291 286 286 287 288 286 282 278 275 273 269 264 260 258 258 259 260 262
235 234 232 232 232 233 234 236 237 237 237 235 233 232 230 230 229 229 230 231 233 233 234 235 232 228 227 225 223 220 217 217 218 221 222 223 223 222 219 213 212 210 208 210 213 219 219 219 218 219 233 254 276 289 298 310 321 336 348 2 8 10 11 2 351 319 292 277 272 274 276 280 282 283 282 281 282 280 276 270 265 262 261 262 263
239 237 235 234 232 233 234 235 235 236 237 238 238 236 234 233 230 230 231 232 233 233 234 234 231 227 226 223 219 216 214 215 218 221 219 219 220 217 214 210 210 209 210 214 218 222 222 223 228 237 257 278 293 303 311 320 329 339 346 355 1 4 5 359 350 323 289 270 260 259 262 267 272 275 278 279 281 282 282 280 275 269 265 264 264
246 243 240 238 236 236 235 236 236 235 236 237 238 238 237 235 233 232 232 232 232 234 235 235 233 229 228 224 218 215 214 216 218 218 217 216 216 213 211 210 210 210 212 216 219 220 222 226 236 253 275 292 303 312 318 325 332 338 344 348 353 356 356 354 346 332 309 284 267 260 258 260 265 269 271 274 276 279 281 281 280 277 273 270 269
250 249 247 244 241 240 238 239 238 236 235 235 237 238 238 237 236 234 233 232 232 234 236 236 235 232 231 226 219 215 215 217 217 216 215 214 214 211 210 210 210 212 214 215 218 218 220 226 237 256 275 292 302 311 317 325 331 336 341 344 348 350 351 350 345 336 321 303 284 272 265 263 264 267 268 270 272 275 278 279 279 279 277 276 275
259 256 253 247 244 243 242 241 239 237 236 235 235 236 237 238 237 236 234 233 234 235 236 237 236 235 233 227 220 217 216 217 217 215 215 214 212 211 211 211 212 214 216 216 217 218 219 225 236 253 270 283 293 304 313 321 329 334 339 342 346 348 350 349 346 341 331 319 301 284 273 267 265 266 268 269 269 271 275 276 277 277 277 277 276
263 256 252 249 249 247 245 243 240 238 237 236 235 236 237 237 237 237 236 234 235 236 237 237 237 236 234 228 222 218 218 218 218 218 216 215 214 213 213 214 216 217 218 219 219 220 223 230 241 255 266 277 288 302 314 323 330 334 338 341 344 346 348 348 346 343 338 330 316 300 284 273 268 267 267 268 268 268 270 273 274 275 275 275 275
260 255 254 251 249 248 246 244 242 241 239 237 236 236 236 237 237 237 237 235 236 237 237 238 237 237 235 230 225 221 220 220 221 221 218 217 215 215 215 217 219 220 222 223 224 225 229 235 244 254 264 278 292 308 320 329 334 337 339 340 341 343 344 344 345 342 339 333 324 314 299 284 274 269 267 267 267 266 267 270 271 273 273 273 273
263 260 258 253 249 247 246 244 244 243 241 239 237 236 237 238 238 238 238 237 237 237 238 238 238 238 236 232 228 224 223 223 222 222 220 218 216 216 217 220 221 222 224 225 226 227 231 237 245 257 270 286 302 315 324 331 335 337 338 338 338 339 340 340 341 339 336 332 326 319 308 297 283 273 269 267 266 266 265 266 267 268 268 268 269
263 260 255 252 250 248 246 245 244 244 242 241 238 237 237 238 238 238 239 238 237 238 238 239 238 237 237 234 230 227 226 225 224 223 222 219 217 217 219 220 221 223 224 224 226 227 232 239 248 261 273 288 302 314 322 328 332 334 334 334 334 333 335 336 336 335 332 329 325 319 312 303 292 281 274 269 266 264 262 260 260 260 262 262 263
262 260 255 252 249 247 247 245 243 243 242 241 240 239 239 239 239 238 238 238 238 238 238 238 238 238 237 235 232 230 229 227 226 225 223 220 218 218 220 221 220 222 223 223 225 227 232 239 248 257 268 282 296 308 316 323 327 329 329 329 328 328 328 329 330 330 329 326 323 319 313 305 296 288 280 274 268 263 258 254 251 251 253 256 258
271 266 258 256 251 247 246 245 244 243 242 241 240 240 239 239 239 240 240 239 239 238 237 238 238 238 237 236 234 233 232 230 228 226 225 222 220 220 221 220 220 222 222 223 224 227 231 236 243 250 260 275 288 300 309 316 321 323 325 324 322 322 323 324 325 325 324 323 320 316 312 305 296 289 283 277 270 262 255 251 247 244 241 242 250
275 269 266 263 255 250 247 245 244 243 243 241 240 240 239 239 240 241 240 240 240 239 238 237 238 238 237 236 235 234 233 231 228 227 226 224 222 222 222 221 221 222 221 222 224 226 229 233 239 246 256 268 280 291 300 308 314 317 319 319 318 318 318 319 320 321 321 321 319 315 310 304 296 288 281 274 268 262 254 248 243 238 230 222 228
273 273 276 269 261 258 253 248 244 243 244 242 240 239 239 239 239 240 241 241 241 240 239 238 237 237 237 236 236 235 234 232 229 227 227 226 225 224 224 224 223 224 223 223 224 226 229 233 239 245 253 262 271 282 290 299 306 311 313 314 313 313 314 316 317 318 319 319 317 314 309 302 296 286 278 270 265 261 255 250 244 238 228 216 214
277 275 272 268 268 266 259 254 248 245 245 245 242 240 240 239 238 240 240 240 240 240 240 239 238 237 237 236 236 235 235 233 231 229 227 226 226 226 226 226 225 225 225 225 225 226 229 233 238 242 248 255 263 272 280 289 297 304 307 309 309 310 312 314 315 316 318 318 315 311 306 298 292 283 275 268 264 262 258 254 249 244 235 220 216
280 275 268 268 271 269 265 261 255 250 247 246 245 243 241 240 238 238 239 240 239 239 240 239 239 237 237 236 236 235 235 234 232 229 228 227 226 226 227 227 226 226 226 226 226 227 230 233 236 239 243 248 254 262 269 279 289 297 302 305 307 308 311 312 313 316 317 316 312 306 300 293 287 279 273 268 264 262 258 256 251 249 244 236 237
281 279 275 274 271 268 267 266 263 258 252 248 247 245 243 241 240 239 238 239 239 239 239 239 239 237 237 236 236 236 235 234 232 230 228 228 227 227 227 227 227 227 226 226 226 227 230 232 234 236 239 242 246 253 260 269 280 290 297 302 305 306 309 312 312 314 313 310 305 298 292 285 279 273 269 266 263 261 257 255 252 251 250 249 253
281 281 280 278 272 269 268 267 266 264 259 254 249 246 245 243 241 240 239 239 239 239 239 239 239 238 236 236 236 235 235 234 233 231 230 229 228 228 228 228 227 227 226 226 226 227 230 231 233 234 235 237 239 245 250 260 272 283 293 298 303 306 307 309 310 310 306 301 294 286 279 273 270 268 265 263 261 259 258 256 253 251 250 251 254
283 281 279 277 274 271 269 269 269 267 265 260 253 248 246 244 243 241 240 239 238 239 239 238 238 237 236 236 235 235 234 234 233 232 231 230 229 228 229 229 228 227 227 227 226 228 229 231 232 232 232 231 233 240 245 254 267 278 289 296 301 305 306 307 306 304 297 289 281 271 265 262 262 261 260 259 258 258 257 257 254 252 250 251 253
287 284 281 278 275 273 270 270 269 266 263 260 256 250 245 244 243 242 241 240 239 239 238 238 238 237 237 236 235 235 234 234 233 232 231 230 229 228 229 229 229 228 227 226 226 227 228 229 230 230 229 228 229 236 243 251 261 270 280 291 298 301 303 303 301 298 288 276 263 256 254 254 254 254 254 254 254 254 254 254 253 252 251 251 252
291 287 284 280 275 273 271 269 266 263 260 258 255 250 245 243 242 242 241 240 239 238 237 237 237 237 237 236 235 235 235 234 233 232 231 230 229 228 228 229 229 228 227 226 226 226 227 228 228 228 227 227 228 233 240 246 252 259 269 281 290 295 298 298 294 288 278 265 251 245 245 249 253 252 251 250 249 248 248 248 249 249 249 249 250
294 289 286 280 276 274 272 269 265 262 258 254 251 247 244 241 239 239 239 238 238 237 236 236 236 236 236 236 235 235 234 234 233 233 232 231 230 229 228 228 228 228 228 227 227 228 229 229 229 229 227 226 228 232 236 241 244 247 255 268 280 288 291 289 285 277 267 257 247 242 241 246 251 252 251 249 248 246 244 243 243 243 243 243 243
297 292 289 284 279 275 271 268 265 261 257 253 249 245 243 240 239 239 239 238 237 236 235 235 235 235 235 235 235 234 234 234 233 233 232 230 229 229 228 228 228 228 229 229 229 230 229 229 229 228 227 227 228 231 233 236 237 238 242 253 266 275 279 277 272 267 259 250 243 239 239 241 245 248 251 251 251 251 247 245 242 240 240 239 238
309 299 295 292 283 273 267 265 262 259 255 253 250 248 246 245 245 246 244 240 238 238 236 234 234 234 234 234 233 233 232 233 233 233 232 231 229 229 228 228 228 229 229 229 228 228 228 227 226 226 225 225 227 230 233 234 232 233 237 243 247 254 262 263 258 254 246 238 234 232 232 232 237 243 247 251 254 256 256 252 248 243 241 239 237
337 321 306 295 285 275 268 263 258 256 253 251 250 249 249 249 249 249 247 244 243 242 239 237 235 235 234 234 233 232 232 232 232 232 232 231 230 229 229 229 229 229 229 228 227 226 226 226 226 226 226 225 225 228 232 233 231 228 228 234 238 235 242 250 250 243 234 227 225 223 222 223 229 237 243 248 254 257 257 254 250 247 242 238 235
346 342 326 305 290 283 276 267 261 257 254 252 251 250 250 249 248 248 247 246 246 245 242 239 237 236 235 234 233 232 231 231 231 232 232 231 231 230 230 230 230 230 230 230 229 228 227 226 226 225 226 226 226 228 230 231 230 228 225 224 224 222 238 252 245 233 227 224 224 225 226 225 226 234 241 243 248 251 250 249 247 244 239 233 227
341 342 335 317 300 289 281 273 266 261 258 255 253 251 249 247 245 243 242 241 241 241 240 238 236 235 234 234 233 232 231 231 231 232 232 232 231 230 230 230 229 230 230 230 231 231 230 228 227 226 227 228 228 230 230 228 229 232 232 227 219 223 243 251 232 224 224 224 229 233 235 236 234 236 242 247 249 250 247 245 243 240 234 224 215
339 333 327 318 305 294 283 273 267 262 259 257 254 252 250 248 246 243 241 239 238 239 238 238 237 236 236 236 235 233 232 231 231 231 232 232 231 231 231 230 230 230 230 230 231 230 229 228 228 228 228 229 229 230 230 230 231 234 236 238 240 244 250 243 222 223 228 229 236 237 239 243 236 231 241 254 255 252 250 245 241 236 224 211 204
344 327 314 309 302 296 286 275 270 266 262 258 254 253 251 249 249 248 247 246 245 246 245 244 244 242 241 239 237 235 233 232 231 231 231 231 231 231 231 231 231 231 230 230 230 230 229 228 228 229 229 229 229 230 231 232 233 234 237 241 246 249 251 246 236 235 236 235 238 236 240 244 230 224 239 255 255 253 250 243 238 226 209 200 194
349 333 318 309 303 297 290 279 269 266 263 260 257 256 255 254 253 252 251 251 251 251 251 250 248 245 242 241 240 237 233 232 231 231 231 231 231 231 231 231 231 231 231 231 231 230 229 228 227 227 227 228 229 230 231 233 235 237 238 239 243 245 247 251 251 247 244 243 243 241 241 235 223 225 239 250 251 250 247 239 230 212 199 195 187
351 340 332 327 320 309 298 286 273 268 266 265 263 261 260 259 258 255 254 254 253 252 251 251 250 248 245 243 242 239 235 233 231 231 231 231 232 231 231 231 231 232 232 231 231 230 229 228 227 226 226 227 228 229 230 233 238 240 242 241 242 244 245 248 250 250 248 247 249 250 246 235 227 229 237 244 245 243 240 232 218 202 194 189 182
358 352 351 350 345 334 320 301 285 279 274 272 271 267 264 261 259 258 257 256 255 252 251 251 249 248 246 245 244 241 237 234 232 231 231 231 232 232 232 232 232 232 233 232 231 230 229 228 228 228 228 228 228 229 230 233 237 241 244 244 244 244 245 246 249 251 251 249 249 251 250 243 234 229 234 241 241 237 232 221 207 196 189 183 181
14 11 10 11 6 357 346 331 311 297 289 283 279 274 269 265 264 262 261 260 258 255 254 252 251 249 247 246 246 244 240 236 234 232 232 232 232 232 233 232 232 233 233 232 232 231 230 229 228 228 228 228 228 230 231 232 234 237 241 244 247 249 251 253 256 258 257 255 252 251 250 245 236 232 237 240 236 232 230 218 206 199 189 185 188
Height
1546 1548 1549 1551 1552 1553 1553 1554 1555 1556 1557 1559 1560 1561 1562 1563 1564 1564 1565 1565 1566 1567 1568 1569 1569 1570 1570 1571 1571 1572 1572 1573 1573 1573 1574 1574 1574 1575 1575 1575 1575 1575 1575 1576 1576 1576 1577 1577 1577 1577 1577 1577 1577 1577 1578 1578 1579 1579 1579 1579 1579 1579 1579 1579 1579 1580 1580 1580 1581 1581 1581 1581 1581 1582 1582 1581 1581 1582 1582 1581 1581 1581 1582 1582 1582
1545 1547 1548 1550 1551 1553 1553 1554 1555 1556 1557 1558 1560 1560 1562 1563 1564 1565 1565 1566 1566 1567 1568 1569 1569 1570 1570 1571 1571 1572 1572 1572 1573 1573 1573 1574 1574 1574 1574 1574 1575 1575 1575 1576 1576 1576 1577 1577 1577 1577 1577 1577 1577 1577 1578 1579 1579 1579 1579 1579 1579 1579 1579 1580 1580 1580 1581 1581 1581 1581 1581 1581 1581 1582 1582 1582 1582 1581 1581 1581 1581 1582 1582 1582 1582
1546 1547 1548 1549 1551 1552 1552 1553 1554 1555 1556 1557 1559 1560 1561 1562 1564 1565 1565 1566 1567 1567 1568 1568 1569 1569 1570 1570 1571 1571 1571 1572 1572 1572 1573 1573 1573 1574 1574 1574 1574 1575 1575 1575 1576 1576 1576 1577 1577 1577 1577 1577 1577 1578 1578 1579 1579 1579 1579 1579 1579 1579 1579 1580 1580 1580 1581 1581 1581 1581 1581 1581 1582 1582 1582 1582 1581 1581 1581 1581 1581 1582 1582 1582 1582
1546 1547 1548 1549 1550 1551 1552 1553 1554 1555 1556 1557 1558 1559 1560 1561 1563 1564 1565 1565 1566 1567 1567 1568 1568 1569 1569 1570 1570 1570 1571 1571 1571 1572 1572 1572 1573 1573 1574 1574 1574 1575 1575 1575 1575 1576 1576 1577 1577 1577 1577 1578 1578 1578 1579 1579 1579 1579 1579 1579 1579 1579 1579 1580 1580 1580 1580 1581 1581 1581 1581 1582 1582 1581 1581 1581 1581 1581 1581 1581 1581 1582 1582 1582 1582
1545 1546 1547 1548 1549 1550 1551 1552 1553 1554 1555 1556 1557 1558 1559 1560 1561 1563 1564 1565 1565 1566 1566 1567 1567 1568 1569 1569 1569 1570 1570 1570 1571 1571 1571 1572 1572 1573 1573 1574 1574 1574 1575 1575 1575 1575 1576 1577 1577 1577 1578 1578 1578 1578 1579 1579 1579 1579 1579 1579 1579 1579 1579 1580 1580 1580 1580 1581 1581 1581 1581 1581 1581 1581 1581 1581 1581 1581 1581 1581 1581 1581 1582 1582 1582
1544 1546 1546 1548 1548 1549 1550 1551 1552 1553 1554 1555 1556 1557 1558 1559 1560 1561 1562 1563 1564 1565 1566 1566 1567 1568 1568 1568 1569 1569 1570 1570 1570 1570 1571 1571 1572 1572 1573 1573 1574 1574 1574 1575 1575 1575 1576 1576 1577 1577 1577 1577 1578 1578 1578 1578 1578 1578 1579 1579 1579 1579 1579 1580 1580 1580 1580 1580 1580 1581 1581 1581 1581 1581 1580 1580 1580 1580 1580 1580 1581 1581 1581 1581 1582
1544 1545 1546 1547 1548 1549 1550 1550 1551 1552 1553 1554 1555 1556 1557 1558 1559 1560 1561 1562 1563 1564 1565 1566 1566 1567 1567 1568 1569 1569 1569 1569 1569 1570 1570 1571 1571 1572 1572 1573 1573 1573 1574 1574 1574 1575 1576 1576 1576 1576 1576 1576 1577 1577 1577 1577 1577 1578 1578 1578 1578 1578 1579 1579 1579 1579 1579 1580 1580 1580 1581 1581 1581 1580 1580 1580 1580 1580 1580 1580 1580 1581 1581 1581 1581
1543 1544 1545 1546 1547 1548 1549 1550 1551 1551 1552 1553 1554 1555 1556 1558 1559 1560 1560 1561 1562 1563 1564 1565 1566 1566 1567 1568 1568 1568 1568 1569 1569 1569 1570 1571 1571 1571 1572 1572 1572 1573 1573 1573 1574 1574 1575 1575 1576 1576 1576 1576 1576 1576 1576 1576 1576 1576 1577 1577 1577 1577 1577 1578 1578 1578 1579 1579 1579 1580 1580 1580 1580 1580 1580 1579 1579 1579 1579 1579 1580 1580 1581 1581 1581
1542 1543 1544 1545 1546 1547 1548 1549 1550 1551 1552 1552 1554 1555 1556 1557 1558 1559 1560 1561 1562 1563 1564 1565 1566 1566 1566 1567 1567 1567 1568 1568 1568 1569 1569 1570 1570 1571 1571 1572 1572 1572 1572 1573 1573 1573 1574 1574 1574 1575 1575 1575 1575 1575 1575 1575 1575 1575 1575 1575 1575 1575 1576 1576 1577 1577 1578 1578 1579 1579 1579 1579 1579 1579 1579 1579 1578 1578 1578 1579 1580 1580 1580 1580 1580
1541 1542 1543 1544 1545 1546 1547 1548 1549 1550 1551 1552 1553 1553 1555 1556 1557 1558 1559 1560 1561 1562 1564 1564 1565 1565 1566 1566 1566 1567 1567 1567 1567 1568 1568 1569 1570 1570 1570 1571 1571 1571 1571 1572 1572 1572 1573 1573 1573 1573 1573 1574 1574 1574 1574 1574 1574 1574 1574 1574 1574 1574 1574 1575 1575 1576 1576 1577 1577 1578 1578 1578 1578 1578 1578 1578 1578 1577 1578 1578 1579 1579 1579 1579 1579
1541 1541 1542 1543 1544 1545 1546 1547 1548 1549 1550 1551 1552 1552 1553 1554 1556 1557 1558 1560 1561 1562 1563 1564 1564 1564 1565 1565 1565 1566 1566 1566 1566 1567 1567 1568 1569 1569 1570 1570 1570 1570 1570 1571 1571 1571 1571 1572 1572 1572 1572 1573 1573 1573 1573 1573 1573 1573 1573 1573 1573 1573 1573 1574 1574 1574 1575 1575 1576 1576 1577 1577 1577 1577 1577 1577 1576 1576 1577 1578 1578 1578 1578 1578 1578
1540 1540 1541 1542 1543 1544 1545 1546 1547 1548 1549 1550 1551 1552 1552 1553 1554 1556 1557 1559 1559 1560 1561 1562 1563 1563 1564 1564 1564 1565 1565 1565 1565 1566 1567 1567 1568 1568 1569 1569 1569 1570 1570 1570 1570 1571 1571 1571 1571 1571 1572 1572 1572 1572 1572 1572 1572 1572 1572 1572 1572 1573 1573 1573 1573 1573 1574 1574 1574 1575 1575 1576 1576 1576 1576 1575 1575 1576 1577 1577 1577 1577 1577 1577 1576
1539 1540 1540 1541 1542 1543 1544 1545 1546 1547 1548 1549 1550 1551 1551 1552 1553 1554 1556 1557 1557 1558 1559 1560 1561 1562 1562 1562 1563 1563 1563 1563 1564 1565 1566 1566 1567 1567 1568 1568 1568 1569 1569 1569 1570 1570 1570 1570 1570 1570 1571 1571 1571 1572 1572 1572 1572 1572 1572 1572 1572 1572 1572 1573 1573 1573 1573 1573 1573 1573 1574 1574 1575 1575 1575 1574 1575 1575 1576 1576 1576 1576 1576 1576 1575
1538 1539 1539 1540 1541 1542 1543 1544 1545 1546 1547 1548 1549 1549 1550 1551 1552 1553 1554 1555 1556 1557 1558 1559 1559 1560 1560 1561 1561 1561 1562 1562 1563 1564 1564 1565 1566 1566 1567 1567 1568 1568 1568 1569 1569 1569 1570 1570 1570 1570 1571 1571 1572 1572 1572 1572 1572 1572 1572 1572 1572 1572 1572 1572 1572 1572 1572 1572 1572 1572 1572 1573 1573 1573 1573 1573 1573 1574 1574 1575 1575 1575 1575 1575 1575
1537 1537 1538 1539 1540 1541 1542 1543 1544 1545 1545 1546 1547 1548 1549 1550 1551 1552 1553 1554 1555 1555 1556 1557 1557 1558 1558 1559 1560 1560 1560 1561 1562 1563 1563 1564 1565 1565 1566 1566 1567 1567 1568 1569 1569 1569 1570 1570 1570 1571 1571 1572 1572 1572 1572 1572 1572 1572 1572 1572 1572 1572 1572 1572 1572 1571 1571 1571 1571 1571 1572 1572 1572 1572 1572 1572 1572 1572 1573 1573 1573 1573 1574 1574 1574
1535 1536 1537 1537 1538 1539 1540 1541 1542 1543 1544 1545 1546 1547 1548 1549 1550 1551 1552 1553 1554 1554 1555 1556 1556 1556 1557 1557 1558 1559 1559 1560 1561 1562 1562 1563 1564 1564 1565 1566 1566 1567 1567 1568 1569 1569 1570 1570 1571 1571 1571 1572 1572 1572 1572 1572 1572 1572 1572 1572 1572 1572 1572 1571 1571 1571 1571 1571 1571 1571 1571 1571 1571 1571 1571 1571 1571 1571 1571 1572 1572 1572 1572 1573 1573
1534 1534 1535 1536 1537 1537 1538 1539 1540 1541 1543 1544 1544 1545 1546 1547 1549 1550 1551 1552 1552 1553 1554 1554 1554 1555 1555 1556 1557 1557 1558 1559 1560 1560 1561 1562 1563 1564 1564 1565 1566 1566 1567 1568 1568 1569 1569 1570 1570 1571 1571 1571 1571 1572 1572 1572 1572 1572 1572 1572 1572 1572 1571 1571 1571 1570 1570 1570 1570 1570 1570 1570 1570 1570 1569 1569 1569 1569 1570 1570 1570 1570 1571 1571 1571
1532 1533 1533 1534 1535 1536 1536 1537 1538 1539 1541 1542 1543 1544 1545 1546 1547 1548 1549 1550 1551 1552 1552 1553 1553 1554 1555 1555 1556 1556 1557 1558 1559 1559 1560 1561 1562 1562 1563 1564 1565 1566 1566 1567 1568 1568 1569 1569 1570 1570 1570 1571 1571 1571 1571 1572 1572 1572 1572 1572 1572 1571 1571 1570 1570 1570 1570 1569 1569 1569 1569 1569 1569 1569 1568 1568 1568 1568 1568 1568 1569 1569 1569 1569 1569
1531 1531 1532 1532 1533 1534 1534 1535 1536 1537 1538 1540 1541 1542 1543 1544 1545 1546 1547 1549 1549 1550 1551 1551 1552 1553 1554 1554 1555 1556 1556 1557 1558 1558 1559 1560 1561 1562 1562 1563 1564 1565 1566 1566 1567 1568 1568 1569 1569 1569 1570 1570 1570 1570 1571 1571 1571 1571 1571 1571 1571 1570 1570 1570 1569 1569 1569 1569 1569 1568 1568 1568 1568 1567 1567 1567 1567 1567 1567 1567 1567 1567 1567 1567 1568
1529 1529 1530 1530 1531 1532 1532 1533 1534 1535 1536 1538 1539 1540 1541 1542 1544 1545 1546 1547 1547 1548 1549 1550 1551 1552 1553 1553 1554 1555 1555 1556 1557 1558 1558 1559 1560 1561 1562 1563 1563 1564 1565 1566 1566 1567 1567 1568 1568 1569 1569 1569 1569 1570 1570 1570 1570 1570 1569 1569 1569 1569 1568 1568 1568 1568 1568 1568 1568 1568 1567 1567 1567 1566 1566 1565 1565 1566 1566 1566 1566 1565 1565 1566 1566
1527 1527 1528 1528 1529 1529 1530 1531 1532 1533 1534 1535 1537 1538 1539 1540 1542 1543 1544 1545 1545 1546 1547 1548 1549 1550 1551 1552 1553 1554 1555 1555 1556 1557 1558 1559 1560 1561 1561 1562 1563 1564 1564 1565 1566 1566 1567 1567 1568 1568 1568 1568 1568 1568 1568 1568 1568 1568 1568 1567 1567 1567 1567 1567 1567 1567 1566 1567 1566 1566 1566 1566 1566 1565 1565 1564 1564 1564 1564 1564 1564 1564 1564 1564 1564
1524 1525 1525 1526 1526 1527 1528 1529 1529 1531 1532 1533 1534 1535 1537 1538 1539 1540 1542 1543 1544 1545 1545 1546 1547 1548 1549 1550 1551 1552 1554 1554 1555 1556 1557 1558 1559 1560 1561 1561 1562 1563 1564 1565 1565 1566 1566 1567 1567 1567 1567 1567 1567 1567 1567 1567 1567 1567 1566 1566 1566 1566 1565 1565 1565 1565 1565 1565 1565 1565 1565 1564 1564 1564 1563 1563 1563 1563 1563 1563 1563 1563 1562 1563 1563
1522 1522 1523 1524 1524 1525 1526 1526 1527 1528 1529 1530 1531 1533 1534 1535 1537 1538 1539 1540 1541 1542 1543 1544 1545 1546 1547 1549 1550 1551 1552 1553 1554 1555 1556 1557 1558 1559 1560 1560 1561 1562 1563 1564 1565 1565 1566 1566 1566 1567 1567 1567 1567 1566 1566 1566 1566 1565 1565 1565 1565 1565 1564 1564 1564 1564 1564 1563 1563 1563 1563 1563 1562 1562 1562 1562 1561 1561 1561 1561 1561 1561 1561 1561 1561
1519 1520 1521 1521 1522 1523 1523 1524 1525 1526 1527 1528 1529 1530 1531 1533 1534 1535 1537 1538 1539 1540 1541 1542 1544 1545 1546 1547 1548 1549 1550 1551 1553 1553 1554 1555 1557 1558 1558 1559 1560 1561 1562 1563 1564 1564 1565 1566 1566 1566 1566 1566 1566 1566 1566 1565 1565 1564 1564 1564 1564 1564 1563 1563 1563 1563 1563 1562 1562 1562 1561 1561 1561 1561 1560 1560 1560 1560 1560 1560 1560 1560 1560 1560 1560
1517 1517 1517 1518 1519 1520 1521 1522 1522 1523 1524 1525 1526 1527 1529 1530 1531 1532 1534 1535 1536 1538 1539 1540 1542 1543 1544 1545 1546 1547 1549 1550 1551 1552 1553 1554 1555 1556 1557 1558 1559 1560 1561 1562 1563 1563 1564 1564 1565 1565 1565 1565 1565 1565 1565 1564 1564 1564 1563 1563 1563 1563 1562 1562 1562 1562 1561 1561 1561 1561 1560 1560 1560 1559 1559 1559 1559 1559 1558 1558 1558 1559 1559 1559 1559
1512 1513 1514 1515 1516 1517 1518 1519 1520 1520 1521 1522 1524 1525 1526 1527 1528 1530 1531 1533 1534 1535 1536 1538 1539 1541 1542 1543 1544 1545 1546 1548 1549 1550 1551 1552 1553 1555 1556 1556 1557 1558 1559 1560 1561 1562 1563 1563 1564 1564 1564 1564 1564 1564 1563 1563 1563 1562 1562 1562 1562 1561 1561 1561 1561 1560 1560 1560 1559 1559 1559 1559 1559 1558 1558 1557 1557 1557 1557 1557 1557 1557 1557 1558 1558
1509 1509 1510 1511 1512 1513 1514 1516 1517 1517 1518 1519 1521 1522 1523 1524 1526 1527 1528 1530 1531 1532 1534 1535 1537 1539 1540 1541 1542 1543 1544 1546 1547 1548 1549 1550 1551 1553 1554 1555 1556 1557 1558 1559 1560 1561 1562 1562 1563 1563 1563 1563 1563 1562 1562 1562 1561 1561 1561 1561 1561 1560 1560 1560 1560 1559 1559 1558 1558 1557 1557 1557 1557 1557 1557 1556 1556 1556 1556 1556 1556 1556 1556 1556 1556
1505 1504 1506 1507 1508 1509 1511 1512 1513 1514 1515 1516 1517 1519 1520 1521 1522 1524 1525 1526 1528 1529 1531 1533 1535 1536 1538 1539 1540 1541 1542 1544 1545 1546 1548 1549 1550 1551 1552 1553 1554 1555 1556 1558 1559 1560 1560 1561 1561 1561 1562 1561 1561 1561 1560 1560 1560 1560 1560 1559 1559 1559 1559 1559 1558 1558 1557 1557 1556 1556 1556 1556 1556 1555 1555 1555 1555 1555 1555 1555 1555 1555 1555 1555 1555
1500 1500 1502 1503 1504 1506 1507 1508 1509 1510 1512 1513 1514 1516 1517 1518 1518 1520 1521 1523 1524 1526 1528 1530 1532 1533 1535 1536 1538 1539 1540 1542 1543 1545 1546 1547 1548 1549 1550 1551 1552 1554 1555 1556 1557 1558 1559 1559 1560 1560 1560 1560 1560 1560 1559 1559 1559 1559 1559 1558 1558 1558 1558 1557 1557 1557 1556 1556 1555 1555 1555 1555 1554 1554 1554 1554 1554 1554 1554 1554 1554 1554 1554 1554 1554
1496 1497 1498 1499 1500 1502 1503 1504 1505 1506 1508 1509 1511 1512 1513 1514 1514 1516 1518 1519 1521 1523 1525 1527 1529 1530 1532 1533 1535 1537 1538 1540 1541 1543 1544 1545 1546 1547 1548 1550 1551 1552 1553 1554 1555 1556 1557 1558 1558 1558 1559 1559 1559 1558 1558 1558 1558 1558 1558 1557 1557 1557 1557 1556 1556 1556 1555 1555 1554 1554 1553 1553 1553 1553 1553 1552 1552 1552 1552 1552 1552 1552 1553 1553 1553
1493 1493 1494 1495 1496 1497 1498 1500 1501 1502 1504 1505 1507 1508 1509 1510 1511 1513 1514 1515 1517 1519 1521 1523 1525 1527 1529 1531 1532 1534 1536 1537 1539 1540 1542 1543 1544 1545 1547 1548 1549 1550 1551 1552 1553 1554 1555 1556 1556 1557 1557 1557 1557 1557 1557 1557 1557 1557 1556 1556 1556 1556 1555 1555 1555 1554 1554 1553 1553 1552 1552 1552 1552 1552 1551 1551 1551 1551 1551 1551 1551 1551 1551 1552 1552
1489 1490 1490 1491 1492 1493 1494 1496 1497 1499 1499 1501 1502 1504 1504 1506 1508 1509 1510 1512 1514 1515 1517 1519 1521 1523 1525 1527 1529 1531 1532 1534 1536 1538 1539 1541 1542 1543 1544 1546 1547 1548 1549 1550 1551 1552 1553 1554 1554 1555 1555 1556 1556 1556 1556 1556 1556 1556 1556 1555 1555 1554 1554 1554 1554 1553 1553 1552 1552 1551 1551 1550 1550 1550 1550 1550 1549 1549 1549 1549 1549 1549 1550 1550 1550
1485 1487 1487 1487 1488 1489 1490 1492 1494 1494 1495 1496 1498 1499 1500 1502 1504 1505 1507 1508 1510 1511 1512 1514 1516 1519 1521 1523 1525 1527 1529 1531 1533 1535 1536 1538 1539 1541 1542 1544 1545 1546 1547 1548 1549 1550 1551 1552 1553 1553 1554 1554 1554 1554 1554 1555 1555 1554 1554 1554 1554 1553 1553 1553 1552 1552 1552 1551 1551 1550 1549 1549 1549 1548 1548 1548 1548 1548 1548 1548 1548 1548 1549 1549 1549
1481 1483 1483 1483 1485 1486 1486 1487 1489 1490 1491 1492 1493 1494 1496 1497 1499 1501 1502 1503 1505 1507 1508 1510 1512 1515 1517 1519 1521 1523 1525 1527 1529 1531 1533 1535 1536 1538 1540 1541 1542 1543 1544 1545 1547 1548 1549 1550 1551 1551 1552 1552 1553 1553 1553 1553 1553 1553 1553 1553 1552 1552 1552 1551 1551 1550 1550 1550 1549 1548 1548 1548 1547 1547 1547 1547 1547 1547 1547 1547 1547 1547 1548 1547 1547
1477 1478 1479 1480 1481 1481 1482 1483 1484 1484 1486 1487 1488 1490 1491 1493 1495 1496 1498 1499 1501 1502 1504 1506 1508 1510 1512 1514 1516 1518 1521 1523 1525 1527 1529 1531 1533 1534 1536 1538 1539 1541 1542 1543 1544 1545 1547 1548 1549 1549 1550 1551 1551 1551 1551 1551 1552 1552 1552 1551 1551 1550 1550 1550 1549 1549 1548 1548 1548 1547 1547 1546 1546 1546 1546 1546 1546 1546 1546 1546 1546 1546 1547 1547 1547
1473 1473 1474 1475 1476 1476 1477 1478 1479 1480 1481 1482 1483 1485 1487 1488 1490 1491 1493 1495 1497 1498 1500 1501 1503 1505 1507 1509 1511 1513 1516 1518 1521 1523 1525 1527 1529 1531 1533 1535 1536 1537 1539 1540 1541 1543 1544 1545 1546 1547 1548 1549 1549 1549 1549 1550 1550 1550 1550 1549 1549 1548 1548 1548 1548 1547 1547 1547 1546 1546 1546 1545 1545 1545 1545 1545 1545 1546 1545 1546 1546 1546 1546 1546 1546
1468 1468 1469 1470 1470 1471 1472 1472 1473 1474 1475 1477 1478 1480 1482 1483 1485 1487 1488 1490 1492 1494 1495 1497 1499 1501 1502 1504 1506 1508 1511 1514 1516 1518 1520 1522 1525 1527 1529 1531 1532 1534 1535 1537 1538 1540 1541 1543 1544 1545 1546 1546 1547 1547 1548 1548 1548 1549 1548 1548 1547 1547 1547 1546 1546 1546 1545 1545 1545 1545 1545 1545 1545 1545 1545 1545 1545 1545 1545 1545 1545 1545 1545 1545 1546
1464 1463 1464 1464 1465 1466 1466 1467 1468 1469 1470 1472 1473 1475 1477 1479 1480 1482 1483 1485 1487 1489 1491 1492 1494 1496 1497 1499 1502 1504 1507 1509 1512 1514 1516 1518 1521 1523 1525 1527 1528 1530 1532 1533 1535 1537 1538 1540 1541 1542 1543 1544 1545 1545 1545 1546 1547 1547 1547 1546 1545 1545 1545 1545 1544 1544 1544 1544 1544 1544 1544 1544 1544 1544 1544 1544 1544 1544 1544 1544 1544 1544 1545 1545 1545
1460 1459 1459 1459 1459 1460 1460 1461 1462 1463 1465 1466 1468 1470 1471 1473 1474 1476 1478 1479 1481 1483 1485 1487 1489 1491 1492 1495 1497 1500 1503 1505 1507 1510 1512 1514 1516 1518 1520 1522 1524 1526 1528 1530 1531 1533 1535 1536 1537 1539 1540 1542 1543 1543 1543 1544 1545 1545 1545 1544 1544 1544 1543 1543 1543 1543 1543 1543 1543 1543 1543 1543 1543 1543 1543 1543 1543 1543 1543 1543 1543 1543 1543 1544 1544
1456 1455 1454 1454 1454 1455 1455 1455 1456 1458 1460 1461 1462 1463 1464 1466 1468 1469 1470 1472 1474 1476 1478 1481 1483 1485 1488 1490 1493 1495 1498 1501 1503 1505 1508 1510 1512 1514 1515 1517 1519 1522 1524 1525 1527 1529 1531 1533 1534 1536 1537 1539 1540 1540 1541 1542 1543 1543 1543 1543 1543 1542 1542 1542 1542 1541 1541 1541 1541 1541 1541 1542 1542 1542 1542 1542 1542 1542 1542 1541 1541 1541 1542 1542 1542
1452 1452 1450 1449 1449 1450 1450 1449 1451 1453 1453 1454 1455 1456 1457 1458 1460 1462 1463 1465 1467 1470 1472 1475 1477 1480 1483 1485 1487 1490 1493 1496 1499 1501 1503 1505 1507 1509 1510 1513 1515 1517 1520 1522 1525 1526 1528 1530 1532 1533 1535 1536 1537 1538 1538 1540 1541 1541 1541 1542 1541 1541 1540 1540 1540 1540 1540 1540 1540 1540 1540 1540 1541 1541 1541 1542 1542 1541 1541 1541 1540 1540 1540 1540 1540
1450 1449 1447 1446 1445 1445 1445 1445 1446 1447 1448 1449 1450 1451 1452 1453 1454 1456 1458 1460 1462 1464 1466 1469 1472 1475 1478 1479 1482 1485 1488 1491 1494 1496 1499 1500 1502 1504 1506 1509 1511 1514 1516 1519 1521 1523 1525 1526 1528 1530 1531 1533 1535 1535 1536 1537 1539 1539 1540 1540 1540 1539 1539 1539 1539 1539 1539 1539 1539 1540 1539 1539 1539 1539 1540 1540 1540 1540 1540 1540 1540 1539 1539 1539 1539
1447 1446 1445 1444 1443 1442 1441 1441 1442 1442 1443 1444 1445 1447 1448 1450 1452 1454 1456 1458 1459 1460 1463 1466 1468 1470 1471 1474 1477 1480 1483 1486 1489 1491 1494 1496 1498 1501 1503 1506 1508 1510 1512 1515 1517 1519 1520 1522 1524 1526 1528 1530 1532 1533 1534 1535 1536 1537 1538 1538 1538 1538 1538 1538 1537 1538 1538 1538 1538 1538 1539 1539 1538 1538 1539 1539 1539 1539 1539 1539 1539 1538 1538 1538 1538
1444 1443 1443 1442 1440 1439 1438 1438 1438 1438 1439 1440 1442 1444 1445 1447 1449 1451 1453 1455 1456 1457 1460 1462 1463 1464 1466 1469 1471 1475 1478 1481 1484 1487 1489 1492 1494 1497 1500 1502 1504 1506 1508 1511 1512 1514 1516 1518 1521 1523 1525 1527 1529 1530 1531 1532 1534 1534 1535 1536 1536 1536 1536 1536 1536 1536 1536 1536 1536 1537 1537 1537 1537 1537 1537 1537 1537 1537 1537 1537 1537 1537 1537 1537 1537
1441 1440 1440 1439 1438 1437 1436 1435 1435 1435 1436 1437 1439 1440 1441 1442 1444 1446 1447 1449 1450 1451 1452 1453 1454 1457 1459 1463 1466 1470 1473 1476 1480 1482 1485 1488 1491 1493 1495 1497 1500 1501 1504 1506 1508 1511 1513 1515 1517 1519 1521 1523 1525 1527 1528 1530 1530 1531 1532 1533 1534 1534 1534 1534 1534 1535 1535 1535 1535 1535 1535 1536 1536 1536 1536 1536 1536 1535 1535 1535 1535 1535 1535 1535 1535
1438 1437 1436 1435 1435 1434 1433 1433 1432 1432 1433 1434 1435 1436 1437 1438 1438 1440 1441 1442 1443 1444 1444 1446 1448 1452 1456 1459 1463 1466 1470 1472 1475 1478 1481 1484 1486 1489 1491 1493 1495 1497 1499 1501 1504 1506 1509 1511 1514 1516 1518 1520 1522 1524 1525 1526 1527 1528 1529 1530 1530 1531 1532 1533 1533 1533 1533 1533 1533 1533 1533 1534 1534 1535 1534 1534 1534 1534 1534 1534 1534 1534 1534 1534 1533
1435 1434 1433 1432 1431 1431 1430 1430 1430 1430 1431 1431 1432 1433 1433 1434 1435 1436 1437 1438 1439 1440 1443 1446 1449 1452 1455 1457 1460 1462 1465 1467 1470 1473 1476 1479 1482 1485 1487 1489 1491 1493 1495 1497 1499 1502 1505 1508 1510 1512 1515 1517 1518 1520 1522 1523 1524 1525 1526 1527 1528 1529 1530 1530 1531 1531 1531 1531 1531 1531 1531 1532 1532 1533 1533 1533 1533 1533 1533 1533 1533 1533 1533 1532 1532
1434 1433 1431 1430 1428 1428 1427 1427 1428 1428 1429 1429 1430 1431 1432 1433 1433 1435 1435 1436 1437 1440 1443 1445 1447 1450 1452 1453 1456 1458 1461 1463 1466 1469 1472 1475 1477 1480 1482 1485 1487 1489 1491 1493 1495 1498 1502 1504 1506 1509 1511 1513 1514 1516 1518 1520 1521 1522 1524 1525 1526 1526 1527 1528 1528 1529 1529 1529 1529 1529 1530 1530 1531 1531 1531 1532 1532 1532 1532 1532 1531 1531 1531 1531 1531
1433 1432 1431 1430 1428 1426 1426 1426 1426 1427 1427 1429 1429 1430 1431 1432 1433 1434 1434 1434 1436 1438 1440 1442 1444 1446 1448 1449 1452 1454 1456 1459 1461 1464 1467 1470 1473 1475 1478 1480 1483 1485 1487 1490 1493 1495 1497 1499 1502 1504 1506 1509 1511 1513 1514 1516 1518 1520 1521 1522 1523 1524 1525 1526 1526 1527 1527 1527 1527 1527 1528 1528 1529 1529 1530 1530 1530 1530 1530 1530 1530 1530 1530 1530 1530
1432 1430 1429 1429 1429 1427 1426 1425 1426 1427 1427 1429 1430 1430 1431 1432 1432 1433 1433 1435 1436 1436 1437 1438 1440 1442 1443 1445 1447 1450 1452 1455 1457 1460 1462 1465 1468 1470 1473 1476 1479 1482 1484 1487 1489 1490 1493 1496 1498 1501 1503 1505 1507 1508 1511 1513 1515 1517 1518 1519 1520 1521 1522 1523 1524 1524 1525 1525 1525 1525 1526 1526 1527 1528 1528 1528 1528 1528 1528 1528 1528 1529 1529 1528 1529
1431 1429 1428 1428 1428 1428 1428 1428 1428 1428 1428 1429 1430 1431 1432 1432 1432 1432 1433 1435 1435 1435 1436 1436 1436 1437 1439 1441 1443 1446 1449 1451 1454 1456 1458 1460 1462 1465 1468 1471 1475 1478 1480 1482 1484 1487 1490 1492 1495 1497 1499 1501 1503 1505 1507 1509 1511 1513 1515 1516 1517 1518 1519 1520 1521 1522 1522 1523 1523 1524 1524 1525 1525 1526 1526 1526 1526 1526 1526 1526 1526 1527 1527 1526 1527